Location: Ebenezer
(18.2167°N, 63.0667°W)
Time: 01:09:13
(UTC+00:00)

FUSE - Pass Details

Date: 26 January 2020
Orbit: 742 x 756 km, 25.0° (Epoch: 27 February)

Event Time Altitude Azimuth Distance (km) Brightness Sun altitude
Rises 23:24:18 0° 289° (WNW) 3,176 8.2 -19.3°
Reaches altitude 10° 23:26:51 10° 295° (WNW) 2,254 7.1 -19.9°
Maximum altitude 23:31:59 46° 9° (N) 992 4.4 -21.1°
Enters shadow 23:32:59 41° 40° (NE) 1,068 4.3 -21.3°
